Terminal Aerodrome Forecast
Issued by NWS Wichita, KS

Home | Current Version | Previous Version | Text Only | Print | Product List | Glossary On
Versions: 1 2 3 4 5 6 7 8 9 10 11 12 13 14
000
FTUS43 KICT 181100
TAFICT
TAF
KICT 181120Z 1812/1912 16006KT P6SM BKN150
     FM181800 21013KT P6SM FEW090
     FM190500 23008KT P6SM VCTS BKN070CB=

USA.gov is the U.S. government's official web portal to all federal, state and local government web resources and services.